FW0338 Weather Reports


time (UTC)temp
C
wind
direction
speed
KPH
gust
KPH
rain 1hr
cm
rain 24hr
cm
rain mn
cm
humidity
%
barometer
mb
20260902092528 24 0 0.0 4.8 0.00 0.08 0.00 97 1015.6
20260902092028 24 132 0.0 4.8 0.00 0.08 0.00 97 1015.6
20260902091538 24 0 0.0 4.8 0.00 0.08 0.00 97 1015.6
20260902091029 24 140 0.0 4.8 0.00 0.08 0.00 97 1015.6
20260902090528 24 140 0.0 4.8 0.00 0.08 0.00 97 1015.5
20260902090052 24 0 0.0 3.2 0.00 0.08 0.00 97 1015.5
20260902085528 24 137 0.0 3.2 0.00 0.08 0.00 97 1015.4
20260902085027 24 0 0.0 3.2 0.00 0.08 0.00 96 1015.4
20260902084554 24 0 0.0 3.2 0.00 0.08 0.00 96 1015.4
20260902084029 24 0 0.0 3.2 0.00 0.08 0.00 97 1015.5
20260902083531 24 144 0.0 3.2 0.00 0.08 0.00 96 1015.5
20260902083051 24 0 0.0 3.2 0.00 0.08 0.00 96 1015.4
20260902082531 24 0 0.0 3.2 0.00 0.08 0.00 96 1015.5
20260902082028 24 0 0.0 1.6 0.00 0.08 0.00 96 1015.5
20260902081545 24 0 0.0 3.2 0.00 0.08 0.00 96 1015.5
20260902081026 24 0 0.0 3.2 0.00 0.08 0.00 96 1015.6
20260902080528 24 0 0.0 1.6 0.00 0.08 0.00 96 1015.5
20260902080042 24 0 0.0 1.6 0.00 0.08 0.00 96 1015.5
20260902075528 24 0 0.0 1.6 0.00 0.08 0.00 96 1015.5
20260902075027 24 0 0.0 0.0 0.00 0.08 0.00 95 1015.4
20260902074546 24 0 0.0 0.0 0.00 0.08 0.00 95 1015.5
20260902074029 24 0 0.0 0.0 0.00 0.08 0.00 95 1015.6
20260902073529 24 0 0.0 0.0 0.00 0.08 0.00 95 1015.7
20260902073044 25 0 0.0 0.0 0.00 0.08 0.00 95 1015.7
20260902072529 25 0 0.0 0.0 0.00 0.08 0.00 94 1015.8
20260902072028 25 0 0.0 0.0 0.00 0.08 0.00 94 1015.9
20260902071552 25 0 0.0 0.0 0.00 0.08 0.00 94 1015.9
20260902071029 25 0 0.0 0.0 0.00 0.08 0.00 94 1015.8
20260902070528 25 0 0.0 0.0 0.00 0.08 0.00 94 1015.8
20260902070055 25 0 0.0 4.8 0.00 0.08 0.00 94 1015.8
20260902065528 25 0 0.0 4.8 0.00 0.08 0.00 94 1015.7
20260902065029 25 0 0.0 1.6 0.00 0.08 0.00 94 1015.7
20260902064556 25 0 0.0 1.6 0.00 0.08 0.00 94 1015.7
20260902064027 25 0 0.0 0.0 0.00 0.08 0.00 94 1015.6
20260902063525 25 0 0.0 3.2 0.00 0.08 0.00 94 1015.7
20260902063054 25 0 0.0 4.8 0.00 0.08 0.00 94 1015.7
20260902062529 25 153 1.6 4.8 0.00 0.08 0.00 94 1015.7
20260902062029 25 0 0.0 4.8 0.00 0.08 0.00 94 1015.8
20260902061601 25 151 0.0 8.0 0.00 0.08 0.00 94 1015.8
20260902061028 25 138 0.0 8.0 0.00 0.08 0.00 94 1015.7
20260902060529 25 0 0.0 6.4 0.00 0.08 0.00 94 1015.8
20260902060043 25 0 0.0 8.0 0.00 0.08 0.00 94 1015.8
20260902055532 25 0 1.6 8.0 0.00 0.08 0.00 95 1015.7
20260902055028 25 140 1.6 4.8 0.00 0.08 0.00 95 1015.7
20260902054553 25 0 0.0 3.2 0.00 0.08 0.00 95 1015.7
20260902054026 25 0 0.0 4.8 0.00 0.08 0.00 95 1015.8
20260902053527 25 0 0.0 4.8 0.00 0.08 0.00 95 1015.8
20260902053045 25 0 0.0 4.8 0.00 0.08 0.00 95 1015.7
20260902052528 25 0 0.0 3.2 0.00 0.08 0.00 95 1015.8
20260902052025 25 0 0.0 6.4 0.00 0.08 0.00 94 1015.6
20260902051557 25 0 0.0 6.4 0.00 0.08 0.00 94 1015.7
20260902051028 25 0 0.0 3.2 0.00 0.08 0.00 94 1015.8
20260902050528 25 0 0.0 4.8 0.00 0.08 0.00 94 1015.6
20260902050042 25 128 0.0 4.8 0.00 0.08 0.00 95 1015.7
20260902045525 25 0 0.0 6.4 0.00 0.08 0.08 94 1015.8
20260902045027 25 191 1.6 6.4 0.00 0.08 0.08 94 1015.8
20260902044606 25 0 0.0 6.4 0.00 0.08 0.08 94 1015.9
20260902044029 25 0 0.0 4.8 0.00 0.08 0.08 94 1015.9
20260902043525 25 0 0.0 3.2 0.00 0.08 0.08 94 1015.9
20260902043050 25 0 0.0 3.2 0.00 0.08 0.08 94 1016.0
20260902042525 25 0 0.0 3.2 0.00 0.08 0.08 94 1015.9
20260902042025 25 0 0.0 4.8 0.00 0.08 0.08 94 1016.1
20260902041547 25 0 0.0 4.8 0.00 0.08 0.08 94 1016.1
20260902041027 25 0 0.0 3.2 0.00 0.08 0.08 94 1015.9
20260902040528 25 0 0.0 0.0 0.00 0.08 0.08 94 1016.0
20260902040044 25 0 0.0 3.2 0.00 0.08 0.08 93 1016.0
20260902035529 25 0 0.0 3.2 0.00 0.08 0.08 93 1016.1
20260902035029 25 0 0.0 3.2 0.00 0.08 0.08 93 1016.0
20260902034551 25 150 0.0 3.2 0.00 0.08 0.08 93 1015.9
20260902034028 25 0 0.0 0.0 0.00 0.08 0.08 93 1015.9
20260902033528 25 0 0.0 1.6 0.00 0.08 0.08 93 1015.8
20260902033044 25 0 0.0 3.2 0.00 0.08 0.08 93 1015.9
20260902032529 25 0 0.0 3.2 0.00 0.08 0.08 93 1015.9
20260902032029 25 0 0.0 3.2 0.00 0.08 0.08 93 1015.8
20260902031556 25 0 0.0 3.2 0.00 0.08 0.08 93 1015.9
20260902031028 25 0 0.0 3.2 0.00 0.08 0.08 93 1015.9
20260902030527 25 0 0.0 3.2 0.00 0.08 0.08 93 1015.9
20260902030056 25 0 0.0 3.2 0.00 0.08 0.08 93 1016.0
20260902025528 25 83 0.0 1.6 0.00 0.08 0.08 93 1015.9
20260902025029 25 0 0.0 0.0 0.00 0.08 0.08 93 1015.8
20260902024557 25 0 0.0 1.6 0.00 0.08 0.08 93 1015.8
20260902024028 25 0 0.0 1.6 0.00 0.08 0.08 93 1015.9
20260902023526 25 0 0.0 1.6 0.00 0.08 0.08 93 1015.8
20260902023048 25 0 0.0 1.6 0.00 0.08 0.08 93 1015.8
20260902022528 25 0 0.0 1.6 0.00 0.08 0.08 93 1015.6
20260902022026 25 0 0.0 1.6 0.00 0.08 0.08 93 1015.6
20260902021546 25 0 0.0 1.6 0.00 0.08 0.08 93 1015.5
20260902021031 25 0 0.0 1.6 0.00 0.08 0.08 93 1015.4
20260902020528 25 0 0.0 0.0 0.00 0.08 0.08 92 1015.4
20260902020053 25 0 0.0 1.6 0.00 0.08 0.08 92 1015.4
20260902015526 25 0 0.0 1.6 0.00 0.08 0.08 92 1015.4
20260902015028 26 0 0.0 1.6 0.00 0.08 0.08 92 1015.3
20260902014544 26 0 0.0 1.6 0.00 0.08 0.08 92 1015.4
20260902014028 26 0 0.0 1.6 0.00 0.08 0.08 92 1015.4
20260902013528 26 0 0.0 1.6 0.00 0.08 0.08 91 1015.3
20260902013047 26 0 0.0 1.6 0.00 0.08 0.08 91 1015.3
20260902012531 26 0 0.0 1.6 0.00 0.08 0.08 91 1015.1
20260902012028 26 0 0.0 1.6 0.00 0.08 0.08 91 1015.1
20260902011553 26 0 0.0 1.6 0.00 0.08 0.08 91 1015.0
20260902011028 26 0 0.0 1.6 0.00 0.08 0.08 90 1015.1
20260902010528 26 0 0.0 1.6 0.00 0.08 0.08 90 1015.1
20260902010049 26 0 0.0 0.0 0.00 0.08 0.08 89 1015.0
20260902005528 26 0 0.0 1.6 0.00 0.08 0.08 89 1015.1
20260902005031 26 0 0.0 1.6 0.00 0.08 0.08 89 1015.2
20260902004549 26 0 0.0 1.6 0.00 0.08 0.08 89 1015.2
20260902004027 27 0 0.0 1.6 0.00 0.08 0.08 88 1015.0
20260902003525 27 0 0.0 3.2 0.00 0.08 0.08 88 1015.1
20260902003048 27 0 0.0 3.2 0.00 0.08 0.08 87 1015.0
20260902002529 27 0 0.0 3.2 0.00 0.08 0.08 87 1014.9
20260902002028 27 0 0.0 6.4 0.00 0.08 0.08 86 1015.0
20260902001545 27 0 0.0 8.0 0.00 0.08 0.08 86 1015.0
20260902001027 27 105 1.6 11.3 0.00 0.08 0.08 86 1015.0
20260902000528 27 172 1.6 11.3 0.00 0.08 0.08 86 1015.0
20260902000051 27 0 0.0 8.0 0.00 0.08 0.08 85 1015.1
20260901235529 27 177 1.6 11.3 0.00 0.08 0.08 85 1015.1
20260901235032 27 171 0.0 11.3 0.00 0.08 0.08 85 1014.9
20260901234547 27 0 1.6 11.3 0.00 0.08 0.08 85 1015.0
20260901234029 27 174 1.6 11.3 0.00 0.08 0.08 84 1014.9
20260901233527 28 0 3.2 9.7 0.00 0.08 0.08 84 1014.9
20260901233114 28 178 0.0 6.4 0.00 0.08 0.08 84 1014.9
20260901232528 28 0 0.0 9.7 0.00 0.08 0.08 84 1014.8
20260901232025 28 163 1.6 9.7 0.00 0.08 0.08 83 1014.6
20260901231550 28 151 1.6 12.9 0.00 0.08 0.08 83 1014.6
20260901231027 28 187 3.2 12.9 0.00 0.08 0.08 83 1014.6
20260901230525 28 178 4.8 11.3 0.00 0.08 0.08 84 1014.7
20260901230103 28 134 1.6 11.3 0.00 0.08 0.08 84 1014.5
20260901225529 28 189 3.2 12.9 0.00 0.08 0.08 84 1014.5
20260901225027 28 195 3.2 12.9 0.00 0.08 0.08 84 1014.6
20260901224549 28 0 1.6 12.9 0.00 0.08 0.08 85 1014.4
20260901224030 28 107 1.6 12.9 0.00 0.08 0.08 85 1014.4
20260901223525 28 0 1.6 12.9 0.00 0.08 0.08 85 1014.3
20260901223043 28 140 3.2 12.9 0.00 0.08 0.08 86 1014.5
20260901222524 28 0 1.6 9.7 0.00 0.08 0.08 86 1014.6
20260901222031 28 5 1.6 9.7 0.00 0.08 0.08 87 1014.7
20260901221548 28 177 1.6 9.7 0.00 0.08 0.08 87 1014.7
20260901221027 28 179 1.6 11.3 0.00 0.08 0.08 87 1014.8
20260901220525 28 173 4.8 12.9 0.00 0.08 0.08 86 1014.9
20260901220051 28 177 3.2 12.9 0.00 0.08 0.08 86 1014.9
20260901215533 28 211 3.2 9.7 0.00 0.08 0.08 86 1014.9
20260901215029 28 0 0.0 9.7 0.00 0.08 0.08 87 1014.8
20260901214546 28 148 3.2 9.7 0.00 0.08 0.08 87 1015.0
20260901214028 28 90 0.0 8.0 0.00 0.08 0.08 88 1015.0
20260901213526 27 103 1.6 6.4 0.00 0.08 0.08 88 1015.0
20260901213048 27 127 0.0 6.4 0.00 0.08 0.08 88 1015.1
20260901212526 27 0 0.0 6.4 0.00 0.08 0.08 88 1015.1
20260901212027 27 0 0.0 8.0 0.00 0.08 0.08 89 1015.3
20260901211550 27 132 0.0 8.0 0.00 0.08 0.08 88 1015.3
20260901211029 27 175 0.0 9.7 0.00 0.08 0.08 88 1015.4
20260901210526 27 0 0.0 9.7 0.00 0.08 0.08 88 1015.5
20260901210048 27 0 0.0 8.0 0.00 0.08 0.08 88 1015.6
20260901205526 27 0 0.0 4.8 0.00 0.08 0.08 89 1015.4
20260901205027 27 0 0.0 3.2 0.00 0.08 0.08 89 1015.6
20260901204545 27 0 0.0 3.2 0.00 0.08 0.08 90 1015.6
20260901204024 27 0 0.0 4.8 0.00 0.08 0.08 91 1015.6
20260901203528 27 0 0.0 4.8 0.00 0.08 0.08 91 1015.6
20260901203047 26 170 0.0 4.8 0.03 0.08 0.08 92 1015.5
20260901202525 26 0 0.0 1.6 0.03 0.08 0.08 93 1015.7
20260901202025 26 0 0.0 1.6 0.03 0.08 0.08 93 1015.7
20260901201550 26 0 0.0 3.2 0.03 0.08 0.08 94 1015.8
20260901201025 26 0 0.0 4.8 0.03 0.08 0.08 94 1015.8
20260901200528 26 0 0.0 4.8 0.03 0.08 0.08 94 1015.9
20260901200047 26 0 0.0 4.8 0.03 0.08 0.08 94 1016.1
20260901195525 26 72 0.0 3.2 0.03 0.08 0.08 94 1016.3
20260901195027 25 0 0.0 3.2 0.03 0.08 0.08 94 1016.3
20260901194546 25 0 0.0 3.2 0.03 0.08 0.08 94 1016.3
20260901194026 25 0 0.0 3.2 0.03 0.08 0.08 94 1016.3
20260901193528 25 0 0.0 3.2 0.03 0.08 0.08 94 1016.3
20260901193044 25 0 0.0 3.2 0.00 0.05 0.05 94 1016.5
20260901192530 25 142 0.0 3.2 0.00 0.05 0.05 94 1016.5
20260901192029 25 0 0.0 1.6 0.03 0.05 0.05 93 1016.4
20260901191550 25 0 0.0 4.8 0.05 0.05 0.05 93 1016.5
20260901191028 25 0 0.0 4.8 0.05 0.05 0.05 93 1016.3
20260901190525 25 39 0.0 3.2 0.05 0.05 0.05 93 1016.5
20260901190048 25 0 0.0 1.6 0.05 0.05 0.05 93 1016.6
20260901185528 25 0 0.0 1.6 0.05 0.05 0.05 92 1016.7
20260901185027 25 0 0.0 1.6 0.05 0.05 0.05 92 1016.7
20260901184545 25 0 0.0 1.6 0.05 0.05 0.05 92 1016.8
20260901184028 25 0 0.0 3.2 0.05 0.05 0.05 91 1017.0
20260901183527 25 0 0.0 4.8 0.05 0.05 0.05 90 1017.0
20260901183115 25 0 1.6 12.9 0.05 0.05 0.05 90 1017.1
20260901182525 26 175 4.8 19.3 0.05 0.05 0.05 88 1017.2
20260901182030 26 173 8.0 30.6 0.03 0.03 0.03 85 1017.1
20260901181551 27 152 9.7 30.6 0.00 0.00 0.00 81 1016.6
20260901181028 29 180 14.5 29.0 0.00 0.00 0.00 76 1016.7
20260901180526 30 180 8.0 17.7 0.00 0.00 0.00 76 1016.6
20260901180051 30 159 3.2 11.3 0.00 0.00 0.00 77 1016.4
20260901175526 31 166 3.2 12.9 0.00 0.00 0.00 77 1016.4
20260901175027 31 115 4.8 12.9 0.00 0.00 0.00 76 1016.3
20260901174546 31 140 3.2 11.3 0.00 0.00 0.00 78 1016.1
20260901174025 31 165 3.2 11.3 0.00 0.00 0.00 78 1016.1
20260901173528 31 350 1.6 12.9 0.00 0.00 0.00 75 1016.1
20260901173100 32 258 4.8 12.9 0.00 0.00 0.00 75 1016.3
20260901172526 32 355 4.8 16.1 0.00 0.00 0.00 76 1016.6
20260901172029 32 138 4.8 16.1 0.00 0.00 0.00 74 1016.5
20260901171553 32 153 3.2 16.1 0.00 0.00 0.00 74 1016.6
20260901171034 32 162 4.8 14.5 0.00 0.00 0.00 75 1016.7
20260901170530 31 298 3.2 14.5 0.00 0.00 0.00 76 1016.6
20260901170057 31 323 6.4 12.9 0.00 0.00 0.00 78 1016.5
20260901165529 31 107 3.2 12.9 0.00 0.00 0.00 78 1016.5
20260901165031 31 157 3.2 12.9 0.00 0.00 0.00 78 1016.5
20260901164549 31 16 3.2 12.9 0.00 0.00 0.00 79 1016.6
20260901164027 31 210 3.2 24.1 0.00 0.00 0.00 79 1016.7
20260901163528 31 5 3.2 24.1 0.00 0.00 0.00 80 1016.7
20260901163104 31 17 4.8 20.9 0.00 0.00 0.00 80 1016.7
20260901162528 30 124 3.2 11.3 0.00 0.00 0.00 81 1016.7
20260901162032 30 130 3.2 11.3 0.00 0.00 0.00 82 1016.7
20260901161602 30 124 3.2 9.7 0.00 0.00 0.00 83 1017.0
20260901161030 30 34 3.2 12.9 0.00 0.00 0.00 84 1017.0
20260901160528 29 355 1.6 12.9 0.00 0.00 0.00 86 1017.1
20260901160050 29 0 3.2 12.9 0.00 0.00 0.00 85 1017.0
20260901155529 29 0 1.6 9.7 0.00 0.00 0.00 86 1017.0
20260901155029 28 115 1.6 9.7 0.00 0.00 0.00 88 1017.1
20260901154549 28 0 1.6 6.4 0.00 0.00 0.00 87 1017.1
20260901154029 28 0 0.0 9.7 0.00 0.00 0.00 88 1017.1
20260901153533 28 0 1.6 9.7 0.00 0.00 0.00 88 1017.2
20260901153048 28 0 1.6 11.3 0.00 0.00 0.00 88 1017.2
20260901152534 28 0 1.6 11.3 0.00 0.00 0.00 88 1017.2
20260901152028 28 360 0.0 8.0 0.00 0.00 0.00 88 1017.2
20260901151552 28 198 0.0 8.0 0.00 0.00 0.00 89 1017.2
20260901151029 28 0 1.6 9.7 0.00 0.00 0.00 90 1017.0
20260901150528 27 184 0.0 9.7 0.00 0.00 0.00 90 1017.0
20260901150050 27 0 1.6 8.0 0.00 0.00 0.00 90 1016.9
20260901145530 27 170 0.0 9.7 0.00 0.00 0.00 90 1016.9
20260901145029 27 313 0.0 9.7 0.00 0.00 0.00 91 1016.7
20260901144548 27 0 1.6 9.7 0.00 0.00 0.00 91 1016.7
20260901144029 27 37 0.0 6.4 0.00 0.00 0.00 91 1016.8
20260901143528 27 306 1.6 9.7 0.00 0.00 0.00 92 1016.7
20260901143050 27 40 1.6 9.7 0.00 0.00 0.00 92 1016.8
20260901142531 27 355 3.2 9.7 0.00 0.00 0.00 92 1016.7
20260901142032 26 5 1.6 8.0 0.00 0.00 0.00 92 1016.8
20260901141554 27 31 1.6 8.0 0.00 0.00 0.00 92 1016.8
20260901141029 26 193 1.6 6.4 0.00 0.00 0.00 93 1016.8
20260901140527 26 36 1.6 4.8 0.00 0.00 0.00 93 1016.8
20260901140046 26 40 1.6 8.0 0.00 0.00 0.00 93 1016.9
20260901135531 26 290 1.6 8.0 0.00 0.00 0.00 93 1016.9
20260901135030 26 5 1.6 8.0 0.00 0.00 0.00 93 1016.9
20260901134544 26 44 1.6 9.7 0.00 0.00 0.00 94 1017.0
20260901134031 26 269 1.6 14.5 0.00 0.00 0.00 96 1017.0
20260901133536 26 360 1.6 14.5 0.00 0.00 0.00 97 1016.8
20260901133050 25 0 0.0 8.0 0.00 0.00 0.00 97 1017.0
20260901132529 25 71 1.6 8.0 0.00 0.00 0.00 97 1017.0
20260901132028 25 56 1.6 8.0 0.00 0.00 0.00 98 1017.1
20260901131548 25 0 1.6 8.0 0.00 0.00 0.00 98 1016.9
20260901131027 25 0 1.6 8.0 0.00 0.00 0.00 98 1016.8
20260901130528 25 0 0.0 8.0 0.00 0.00 0.00 98 1016.8
20260901130045 25 57 0.0 8.0 0.00 0.00 0.00 98 1016.7
20260901125529 25 62 0.0 3.2 0.00 0.00 0.00 98 1016.6
20260901125028 25 0 0.0 3.2 0.00 0.00 0.00 98 1016.6
20260901124550 25 0 0.0 6.4 0.00 0.00 0.00 98 1016.4
20260901124032 24 0 0.0 6.4 0.00 0.00 0.00 98 1016.3
20260901123528 24 298 0.0 6.4 0.00 0.00 0.00 98 1016.2
20260901123049 24 0 0.0 4.8 0.00 0.00 0.00 98 1016.1
20260901122529 24 22 0.0 4.8 0.00 0.00 0.00 98 1016.0
20260901122028 24 90 0.0 3.2 0.00 0.00 0.00 98 1016.1
20260901121553 24 0 0.0 1.6 0.00 0.00 0.00 97 1016.0
20260901121030 24 0 0.0 3.2 0.00 0.00 0.00 97 1016.0
20260901120527 24 0 0.0 3.2 0.00 0.00 0.00 97 1016.0
20260901120059 24 0 0.0 3.2 0.00 0.00 0.00 97 1015.9
20260901115529 23 92 0.0 3.2 0.00 0.00 0.00 97 1015.8
20260901115030 23 0 0.0 3.2 0.00 0.00 0.00 97 1015.8
20260901114543 23 0 0.0 1.6 0.00 0.00 0.00 97 1015.7
20260901114028 23 0 0.0 1.6 0.00 0.00 0.00 97 1015.7
20260901113532 23 0 0.0 1.6 0.00 0.00 0.00 96 1015.7
20260901113051 23 0 0.0 0.0 0.00 0.00 0.00 96 1015.7
20260901112530 23 0 0.0 0.0 0.00 0.00 0.00 96 1015.7
20260901112030 23 0 0.0 0.0 0.00 0.00 0.00 96 1015.6
20260901111556 24 0 0.0 0.0 0.00 0.00 0.00 96 1015.6
20260901111029 24 0 0.0 0.0 0.00 0.00 0.00 96 1015.6
20260901110526 24 0 0.0 0.0 0.00 0.00 0.00 96 1015.7
20260901110048 24 0 0.0 0.0 0.00 0.00 0.00 96 1015.6
20260901105530 24 0 0.0 0.0 0.00 0.00 0.00 96 1015.5
20260901105029 24 0 0.0 3.2 0.00 0.00 0.00 96 1015.6
20260901104543 24 0 0.0 3.2 0.00 0.00 0.00 96 1015.6
20260901104031 24 0 0.0 0.0 0.00 0.00 0.00 96 1015.6
20260901103528 24 0 0.0 0.0 0.00 0.00 0.00 96 1015.7
20260901103056 24 0 0.0 0.0 0.00 0.00 0.00 96 1015.9
20260901102528 24 0 0.0 0.0 0.00 0.00 0.00 96 1015.8
20260901102033 24 0 0.0 3.2 0.00 0.00 0.00 96 1015.6
20260901101556 24 0 0.0 3.2 0.00 0.00 0.00 96 1015.5
20260901101033 24 97 0.0 1.6 0.00 0.00 0.00 96 1015.5
20260901100529 24 0 0.0 1.6 0.00 0.00 0.00 96 1015.4
20260901095533 24 0 0.0 3.2 0.00 0.00 0.00 96 1015.3
20260901095029 24 98 0.0 1.6 0.00 0.00 0.00 96 1015.4
20260901094546 24 0 0.0 0.0 0.00 0.00 0.00 96 1015.4
20260901094029 24 0 0.0 0.0 0.00 0.00 0.00 96 1015.4
20260901093526 24 0 0.0 0.0 0.00 0.00 0.00 96 1015.3
20260901093046 24 0 0.0 0.0 0.00 0.00 0.00 96 1015.4